| time (UTC) | temp F | wind direction | speed MPH | gust MPH | rain 1hr in | rain 24hr in | rain mn in | humidity % | barometer mb |
| 20260906053515 | 81 | 0.0 | 2.0 | 0.00 | 0.00 | 0.00 | 83 | 1016.3 | |
| 20260906052515 | 81 | 0.0 | 0.0 | 0.00 | 0.00 | 0.00 | 83 | 1016.4 | |
| 20260906051515 | 81 | 0.0 | 0.0 | 0.00 | 0.00 | 0.00 | 82 | 1016.5 | |
| 20260906050515 | 82 | 0.0 | 0.0 | 0.00 | 0.00 | 0.00 | 82 | 1016.5 | |
| 20260906045536 | 82 | 0.0 | 1.0 | 0.00 | 0.00 | 0.00 | 81 | 1016.4 | |
| 20260906044516 | 82 | 0.0 | 1.0 | 0.00 | 0.00 | 0.00 | 81 | 1016.3 | |
| 20260906043516 | 83 | 0.0 | 2.0 | 0.00 | 0.00 | 0.00 | 81 | 1016.2 | |
| 20260906042516 | 83 | 0.0 | 1.0 | 0.00 | 0.00 | 0.00 | 80 | 1016.4 | |
| 20260906041516 | 83 | 0.0 | 2.0 | 0.00 | 0.00 | 0.00 | 79 | 1016.3 | |
| 20260906040516 | 84 | 0.0 | 0.0 | 0.00 | 0.00 | 0.00 | 79 | 1016.2 | |
| 20260906035537 | 84 | 0.0 | 2.0 | 0.00 | 0.00 | 0.00 | 78 | 1016.2 | |
| 20260906034516 | 84 | 0.0 | 1.0 | 0.00 | 0.00 | 0.00 | 78 | 1016.2 | |
| 20260906033516 | 84 | 0.0 | 2.0 | 0.00 | 0.00 | 0.00 | 78 | 1016.1 | |
| 20260906032516 | 84 | 0.0 | 1.0 | 0.00 | 0.00 | 0.00 | 78 | 1016.0 | |
| 20260906031516 | 85 | 0.0 | 2.0 | 0.00 | 0.00 | 0.00 | 77 | 1015.9 | |
| 20260906030516 | 85 | 0.0 | 1.0 | 0.00 | 0.00 | 0.00 | 77 | 1015.5 | |
| 20260906025515 | 85 | 0.0 | 2.0 | 0.00 | 0.00 | 0.00 | 77 | 1015.4 | |
| 20260906024516 | 85 | 113 | 1.0 | 3.0 | 0.00 | 0.00 | 0.00 | 76 | 1015.4 |
| 20260906023536 | 86 | 113 | 1.0 | 2.0 | 0.00 | 0.00 | 0.00 | 76 | 1015.3 |
| 20260906022656 | 86 | 0.0 | 1.0 | 0.00 | 0.00 | 0.00 | 76 | 1015.2 | |
| 20260906021516 | 86 | 113 | 1.0 | 2.0 | 0.00 | 0.00 | 0.00 | 75 | 1015.0 |
| 20260906020536 | 87 | 0.0 | 2.0 | 0.00 | 0.00 | 0.00 | 75 | 1014.7 | |
| 20260906015516 | 87 | 90 | 1.0 | 2.0 | 0.00 | 0.00 | 0.00 | 74 | 1014.6 |
| 20260906014536 | 87 | 113 | 1.0 | 2.0 | 0.00 | 0.00 | 0.00 | 73 | 1014.5 |
| 20260906013515 | 88 | 0.0 | 2.0 | 0.00 | 0.00 | 0.00 | 72 | 1014.3 | |
| 20260906012516 | 88 | 0.0 | 2.0 | 0.00 | 0.00 | 0.00 | 72 | 1014.1 | |
| 20260906011516 | 89 | 0.0 | 2.0 | 0.00 | 0.00 | 0.00 | 71 | 1014.1 | |
| 20260906010516 | 89 | 90 | 1.0 | 2.0 | 0.00 | 0.00 | 0.00 | 71 | 1014.0 |
| 20260906005515 | 90 | 113 | 1.0 | 3.0 | 0.00 | 0.00 | 0.00 | 70 | 1013.9 |
| 20260906004516 | 91 | 90 | 1.0 | 3.0 | 0.00 | 0.00 | 0.00 | 68 | 1013.8 |
| 20260906003515 | 93 | 113 | 1.0 | 3.0 | 0.00 | 0.00 | 0.00 | 65 | 1013.9 |
| 20260906002536 | 94 | 0.0 | 1.0 | 0.00 | 0.00 | 0.00 | 64 | 1013.9 | |
| 20260906001515 | 95 | 0.0 | 3.0 | 0.00 | 0.00 | 0.00 | 63 | 1014.0 | |
| 20260906000516 | 95 | 0.0 | 3.0 | 0.00 | 0.00 | 0.00 | 62 | 1014.1 | |
| 20260905235536 | 96 | 113 | 1.0 | 3.0 | 0.00 | 0.00 | 0.00 | 61 | 1014.1 |
| 20260905234515 | 96 | 113 | 1.0 | 3.0 | 0.00 | 0.00 | 0.00 | 61 | 1014.1 |
| 20260905233556 | 96 | 113 | 1.0 | 6.0 | 0.00 | 0.00 | 0.00 | 61 | 1014.1 |
| 20260905232536 | 96 | 113 | 1.0 | 3.0 | 0.00 | 0.00 | 0.00 | 60 | 1014.1 |
| 20260905231536 | 96 | 90 | 1.0 | 4.0 | 0.00 | 0.00 | 0.00 | 61 | 1014.1 |
| 20260905230515 | 96 | 113 | 2.0 | 7.0 | 0.00 | 0.00 | 0.00 | 60 | 1014.1 |
| 20260905225515 | 96 | 113 | 1.0 | 3.0 | 0.00 | 0.00 | 0.00 | 60 | 1014.0 |
| 20260905224515 | 96 | 113 | 1.0 | 4.0 | 0.00 | 0.00 | 0.00 | 59 | 1013.9 |
| 20260905223535 | 96 | 113 | 2.0 | 7.0 | 0.00 | 0.00 | 0.00 | 58 | 1013.8 |
| 20260905222515 | 96 | 113 | 1.0 | 3.0 | 0.00 | 0.00 | 0.00 | 59 | 1013.6 |
| 20260905221517 | 96 | 113 | 2.0 | 7.0 | 0.00 | 0.00 | 0.00 | 59 | 1013.6 |
| 20260905220518 | 96 | 113 | 1.0 | 5.0 | 0.00 | 0.00 | 0.00 | 60 | 1013.7 |
| 20260905215517 | 95 | 113 | 2.0 | 7.0 | 0.00 | 0.00 | 0.00 | 58 | 1013.7 |
| 20260905214517 | 96 | 113 | 2.0 | 5.0 | 0.00 | 0.00 | 0.00 | 57 | 1013.8 |
| 20260905213517 | 96 | 90 | 2.0 | 5.0 | 0.00 | 0.00 | 0.00 | 57 | 1013.9 |
| 20260905212517 | 95 | 113 | 2.0 | 5.0 | 0.00 | 0.00 | 0.00 | 56 | 1014.2 |
| 20260905211517 | 96 | 113 | 2.0 | 6.0 | 0.00 | 0.00 | 0.00 | 58 | 1014.5 |
| 20260905210517 | 95 | 113 | 1.0 | 5.0 | 0.00 | 0.00 | 0.00 | 57 | 1014.6 |
| 20260905205538 | 94 | 113 | 2.0 | 7.0 | 0.00 | 0.00 | 0.00 | 57 | 1014.7 |
| 20260905204517 | 94 | 113 | 2.0 | 5.0 | 0.00 | 0.00 | 0.00 | 55 | 1014.7 |
| 20260905203517 | 94 | 113 | 2.0 | 5.0 | 0.00 | 0.00 | 0.00 | 57 | 1015.1 |
| 20260905202517 | 94 | 113 | 3.0 | 7.0 | 0.00 | 0.00 | 0.00 | 56 | 1015.4 |
| 20260905201517 | 93 | 113 | 2.0 | 8.0 | 0.00 | 0.00 | 0.00 | 56 | 1015.7 |
| 20260905200537 | 93 | 113 | 3.0 | 7.0 | 0.00 | 0.00 | 0.00 | 56 | 1015.9 |
| 20260905195517 | 93 | 113 | 3.0 | 7.0 | 0.00 | 0.00 | 0.00 | 57 | 1016.0 |
| 20260905194558 | 93 | 113 | 3.0 | 7.0 | 0.00 | 0.00 | 0.00 | 61 | 1016.0 |
| 20260905193517 | 93 | 113 | 3.0 | 8.0 | 0.00 | 0.00 | 0.00 | 59 | 1016.1 |
| 20260905192517 | 93 | 113 | 3.0 | 6.0 | 0.00 | 0.00 | 0.00 | 61 | 1016.2 |
| 20260905191517 | 93 | 113 | 2.0 | 5.0 | 0.00 | 0.00 | 0.00 | 62 | 1016.6 |
| 20260905190517 | 92 | 113 | 3.0 | 7.0 | 0.00 | 0.00 | 0.00 | 62 | 1016.7 |
| 20260905185517 | 92 | 113 | 2.0 | 6.0 | 0.00 | 0.00 | 0.00 | 64 | 1017.0 |
| 20260905184517 | 91 | 113 | 3.0 | 7.0 | 0.00 | 0.00 | 0.00 | 63 | 1017.3 |
| 20260905183517 | 91 | 113 | 3.0 | 8.0 | 0.00 | 0.00 | 0.00 | 63 | 1017.6 |
| 20260905182517 | 91 | 113 | 3.0 | 8.0 | 0.00 | 0.00 | 0.00 | 65 | 1017.5 |
| 20260905181517 | 91 | 113 | 3.0 | 8.0 | 0.00 | 0.00 | 0.00 | 65 | 1017.5 |
| 20260905180517 | 92 | 113 | 3.0 | 7.0 | 0.00 | 0.00 | 0.00 | 63 | 1017.4 |
| 20260905175517 | 93 | 135 | 2.0 | 6.0 | 0.00 | 0.00 | 0.00 | 62 | 1017.4 |
| 20260905174517 | 93 | 158 | 2.0 | 6.0 | 0.00 | 0.00 | 0.00 | 62 | 1017.4 |
| 20260905173517 | 93 | 113 | 2.0 | 5.0 | 0.00 | 0.00 | 0.00 | 62 | 1017.4 |
| 20260905172517 | 94 | 315 | 2.0 | 4.0 | 0.00 | 0.00 | 0.00 | 62 | 1017.4 |
| 20260905171517 | 94 | 90 | 2.0 | 4.0 | 0.00 | 0.00 | 0.00 | 60 | 1017.4 |
| 20260905170517 | 94 | 293 | 1.0 | 4.0 | 0.00 | 0.00 | 0.00 | 61 | 1017.5 |
| 20260905165517 | 94 | 315 | 1.0 | 3.0 | 0.00 | 0.00 | 0.00 | 60 | 1017.6 |
| 20260905164517 | 93 | 293 | 2.0 | 5.0 | 0.00 | 0.00 | 0.00 | 60 | 1017.5 |
| 20260905163517 | 93 | 113 | 1.0 | 2.0 | 0.00 | 0.00 | 0.00 | 63 | 1017.5 |
| 20260905162517 | 92 | 0.0 | 3.0 | 0.00 | 0.00 | 0.00 | 65 | 1017.3 | |
| 20260905161517 | 90 | 0.0 | 1.0 | 0.00 | 0.00 | 0.00 | 66 | 1017.3 | |
| 20260905160517 | 89 | 0.0 | 1.0 | 0.00 | 0.00 | 0.00 | 69 | 1017.1 | |
| 20260905155517 | 88 | 0.0 | 1.0 | 0.00 | 0.00 | 0.00 | 68 | 1017.0 | |
| 20260905154517 | 87 | 0.0 | 1.0 | 0.00 | 0.00 | 0.00 | 70 | 1017.0 | |
| 20260905153517 | 87 | 0.0 | 2.0 | 0.00 | 0.00 | 0.00 | 71 | 1017.0 | |
| 20260905152517 | 87 | 0.0 | 0.0 | 0.00 | 0.00 | 0.00 | 72 | 1017.0 | |
| 20260905151557 | 86 | 0.0 | 1.0 | 0.00 | 0.00 | 0.00 | 72 | 1016.9 | |
| 20260905150517 | 86 | 0.0 | 1.0 | 0.00 | 0.00 | 0.00 | 72 | 1016.9 | |
| 20260905145516 | 85 | 0.0 | 2.0 | 0.00 | 0.00 | 0.00 | 72 | 1016.5 | |
| 20260905144517 | 85 | 0.0 | 2.0 | 0.00 | 0.00 | 0.00 | 74 | 1016.3 | |
| 20260905143517 | 84 | 90 | 1.0 | 2.0 | 0.00 | 0.00 | 0.00 | 74 | 1016.2 |
| 20260905142517 | 84 | 113 | 1.0 | 3.0 | 0.00 | 0.00 | 0.00 | 73 | 1015.9 |
| 20260905141516 | 83 | 0.0 | 1.0 | 0.00 | 0.00 | 0.00 | 74 | 1015.9 | |
| 20260905140516 | 84 | 0.0 | 2.0 | 0.00 | 0.00 | 0.00 | 73 | 1016.1 | |
| 20260905135518 | 83 | 113 | 1.0 | 2.0 | 0.00 | 0.00 | 0.00 | 74 | 1016.3 |
| 20260905134517 | 82 | 0.0 | 1.0 | 0.00 | 0.00 | 0.00 | 76 | 1016.2 | |
| 20260905133516 | 81 | 0.0 | 1.0 | 0.00 | 0.00 | 0.00 | 78 | 1015.9 | |
| 20260905132536 | 80 | 0.0 | 1.0 | 0.00 | 0.00 | 0.00 | 81 | 1015.7 | |
| 20260905131516 | 78 | 0.0 | 2.0 | 0.00 | 0.00 | 0.00 | 84 | 1015.5 | |
| 20260905130516 | 76 | 0.0 | 1.0 | 0.00 | 0.00 | 0.00 | 86 | 1015.5 | |
| 20260905125516 | 76 | 0.0 | 2.0 | 0.00 | 0.00 | 0.00 | 86 | 1015.4 | |
| 20260905124516 | 76 | 0.0 | 0.0 | 0.00 | 0.00 | 0.00 | 87 | 1015.2 | |
| 20260905123516 | 76 | 0.0 | 0.0 | 0.00 | 0.00 | 0.00 | 87 | 1015.0 | |
| 20260905122516 | 76 | 0.0 | 1.0 | 0.00 | 0.00 | 0.00 | 87 | 1014.8 | |
| 20260905121516 | 76 | 0.0 | 0.0 | 0.00 | 0.00 | 0.00 | 86 | 1014.8 | |
| 20260905120516 | 76 | 0.0 | 1.0 | 0.00 | 0.00 | 0.00 | 86 | 1014.9 | |
| 20260905115516 | 76 | 0.0 | 0.0 | 0.00 | 0.00 | 0.00 | 85 | 1014.8 | |
| 20260905114516 | 77 | 0.0 | 0.0 | 0.00 | 0.00 | 0.00 | 85 | 1014.9 | |
| 20260905113516 | 77 | 0.0 | 0.0 | 0.00 | 0.00 | 0.00 | 84 | 1014.8 | |
| 20260905112516 | 78 | 0.0 | 0.0 | 0.00 | 0.00 | 0.00 | 83 | 1014.7 | |
| 20260905111516 | 78 | 0.0 | 1.0 | 0.00 | 0.00 | 0.00 | 81 | 1014.7 | |
| 20260905110516 | 79 | 158 | 1.0 | 3.0 | 0.00 | 0.00 | 0.00 | 80 | 1014.7 |
| 20260905105536 | 79 | 158 | 1.0 | 2.0 | 0.00 | 0.00 | 0.00 | 78 | 1014.8 |
| 20260905104516 | 79 | 158 | 1.0 | 3.0 | 0.00 | 0.00 | 0.00 | 77 | 1014.7 |
| 20260905103536 | 79 | 158 | 2.0 | 8.0 | 0.00 | 0.00 | 0.00 | 78 | 1014.4 |
| 20260905102516 | 79 | 180 | 2.0 | 4.0 | 0.00 | 0.00 | 0.00 | 79 | 1014.4 |
| 20260905101516 | 79 | 158 | 1.0 | 3.0 | 0.00 | 0.00 | 0.00 | 80 | 1014.3 |
| 20260905100536 | 78 | 158 | 2.0 | 4.0 | 0.00 | 0.00 | 0.00 | 81 | 1014.2 |
| 20260905095516 | 78 | 0.0 | 2.0 | 0.00 | 0.00 | 0.00 | 84 | 1014.1 | |
| 20260905094517 | 77 | 158 | 2.0 | 4.0 | 0.00 | 0.00 | 0.00 | 88 | 1014.0 |
| 20260905093516 | 77 | 0.0 | 2.0 | 0.00 | 0.00 | 0.00 | 90 | 1013.9 | |
| 20260905092516 | 77 | 0.0 | 1.0 | 0.00 | 0.00 | 0.00 | 90 | 1013.8 | |
| 20260905091516 | 77 | 158 | 1.0 | 2.0 | 0.00 | 0.00 | 0.00 | 89 | 1014.0 |
| 20260905090516 | 77 | 0.0 | 1.0 | 0.00 | 0.00 | 0.00 | 89 | 1014.1 | |
| 20260905085516 | 77 | 0.0 | 0.0 | 0.00 | 0.00 | 0.00 | 89 | 1014.2 | |
| 20260905084516 | 77 | 0.0 | 0.0 | 0.00 | 0.00 | 0.00 | 89 | 1014.2 | |
| 20260905083516 | 77 | 0.0 | 0.0 | 0.00 | 0.00 | 0.00 | 89 | 1014.2 | |
| 20260905082516 | 77 | 0.0 | 1.0 | 0.00 | 0.00 | 0.00 | 89 | 1014.1 | |
| 20260905081516 | 78 | 0.0 | 0.0 | 0.00 | 0.00 | 0.00 | 89 | 1014.4 | |
| 20260905080516 | 78 | 0.0 | 0.0 | 0.00 | 0.00 | 0.00 | 88 | 1014.5 | |
| 20260905075516 | 78 | 0.0 | 0.0 | 0.00 | 0.00 | 0.00 | 86 | 1014.5 | |
| 20260905074516 | 78 | 0.0 | 0.0 | 0.00 | 0.00 | 0.00 | 85 | 1014.6 | |
| 20260905073516 | 79 | 0.0 | 0.0 | 0.00 | 0.00 | 0.00 | 84 | 1014.7 | |
| 20260905072516 | 79 | 0.0 | 0.0 | 0.00 | 0.00 | 0.00 | 84 | 1014.7 | |
| 20260905071516 | 79 | 0.0 | 0.0 | 0.00 | 0.00 | 0.00 | 84 | 1014.7 | |
| 20260905070536 | 79 | 0.0 | 0.0 | 0.00 | 0.00 | 0.00 | 84 | 1014.7 | |
| 20260905065516 | 80 | 0.0 | 0.0 | 0.00 | 0.00 | 0.00 | 83 | 1014.8 | |
| 20260905064536 | 80 | 0.0 | 0.0 | 0.00 | 0.00 | 0.00 | 83 | 1014.9 | |
| 20260905063516 | 80 | 0.0 | 0.0 | 0.00 | 0.00 | 0.00 | 81 | 1014.9 | |
| 20260905062516 | 81 | 0.0 | 0.0 | 0.00 | 0.00 | 0.00 | 80 | 1014.9 | |
| 20260905061516 | 81 | 0.0 | 0.0 | 0.00 | 0.00 | 0.00 | 79 | 1014.9 | |
| 20260905060516 | 82 | 0.0 | 0.0 | 0.00 | 0.00 | 0.00 | 78 | 1014.9 | |
| 20260905055516 | 82 | 0.0 | 0.0 | 0.00 | 0.00 | 0.00 | 77 | 1014.9 | |
| 20260905054516 | 82 | 0.0 | 2.0 | 0.00 | 0.00 | 0.00 | 77 | 1014.8 |